SCP
0 0 0 0 0 0 0 0 0 0 0 0 0 0 0 0 0 0 0 0 0 0
0 0 0 0 0 0 0 0 0 0 0 0 0 0 0 0 0 0 0 0 0 0
0 0 0 0 0 0 0 0 0 0 0 0 0 0 0 0 0 0 0 -0 0 -0
0 0 0 0 0 0 0 0 0 0 0 0 0 0 0 0 0 0 0 0 0 0
0 0 0 0 0 0 0 0 0 0 0 0 0 0 0 0 -0 -0 -0 -0 -0 0
0 0 0 0 0 0 0 0 0 0 0 0 0 0 0 -0 -0 -0 -0 -0 -0 -0
0 0 0 0 0 0 0 0 0 0 0 0 0 0 0 0 0 -0 -0 -0 0 0
0 0 0 0 0 0 0 0 0 0 0 0 0 0 0 0 0 0 0 0 0 0
0 0 0 0 0 0 0 0 0 0 0 0 0 0 0 0 0 0 0 0 0 0
0 0 0 0 0 0 0 0 0 0 0 0 0 0 0 0 0 0 0 0 0 0
0 0 0 0 0 0 0 0 0 0 0 0 0 0 0 0 0 0 0 0 0 0
0 0 0 0 0 0 0 0 0 0 0 0 0 0 0 0 0 0 0 0 0 0
0 0 0 0 0 0 0 0 0 0 0 0 0 0 0 0 0 0 0 0 0 0
0 0 0 0 0 0 0 0 0 0 0 0 0 0 0 0 0 0 0 0 0 0
Wind_Speed_500mb
9 7 6 8 10 12 16 20 22 24 28 30 33 35 38 41 44 46 47 48 49 48
7 5 5 8 11 13 17 20 24 27 30 33 36 40 44 49 54 57 58 58 57 58
3 2 5 9 12 16 19 21 23 26 29 32 37 42 47 52 57 62 67 71 71 70
7 3 6 12 18 23 27 30 33 35 38 41 45 50 56 61 64 68 71 71 72 73
9 7 11 18 24 28 32 36 39 42 45 49 52 57 63 67 71 75 78 75 72 73
16 14 16 22 28 33 37 42 46 48 50 53 57 63 67 71 75 78 79 80 80 80
24 23 24 26 30 35 39 44 48 49 53 55 59 65 68 71 75 78 79 80 83 85
34 33 31 30 33 37 42 48 52 53 56 57 61 65 69 73 76 79 82 84 85 83
46 41 38 38 37 42 48 54 57 58 60 60 62 66 68 72 77 80 83 86 84 81
54 50 46 43 41 47 54 59 60 60 61 62 62 66 70 73 76 79 81 81 79 78
59 55 51 48 47 52 60 61 61 61 61 62 63 68 70 73 77 78 78 75 72 68
60 58 54 52 50 56 60 61 61 63 62 64 64 67 70 73 76 76 74 69 63 64
57 58 56 53 51 56 60 64 64 64 64 64 66 66 69 70 69 70 69 69 71 70
58 59 57 54 53 59 62 65 64 66 64 62 63 64 62 63 57 57 64 68 71 72
Wind_Direction_500mb
120 106 79 63 38 18 11 8 7 4 360 355 353 350 348 346 342 339 335 330 324 319
130 106 59 32 17 1 354 349 345 341 339 338 338 338 337 336 333 332 330 326 321 315
161 100 24 12 358 354 347 340 334 332 334 333 333 332 331 330 330 328 327 324 321 317
221 294 351 350 344 339 335 333 330 329 328 328 328 328 328 329 329 328 325 322 318 316
243 288 328 332 331 329 328 328 327 325 325 325 326 326 327 327 327 327 325 322 318 314
246 274 298 315 324 326 326 326 324 321 320 321 323 324 325 326 326 325 323 319 317 314
253 268 287 303 316 321 320 319 316 317 319 320 321 322 323 323 323 322 320 317 315 314
256 265 275 289 300 310 317 319 316 316 317 318 320 322 322 322 321 320 318 316 315 314
255 261 268 277 289 302 310 315 314 314 315 316 319 321 321 322 320 318 317 316 316 314
255 259 263 271 284 297 305 309 309 310 311 313 318 320 322 321 318 317 317 316 315 316
255 258 262 272 282 297 303 305 305 308 310 313 319 321 321 319 318 318 316 315 318 319
258 258 264 271 283 294 299 302 303 307 310 313 317 319 319 320 318 316 315 319 323 323
259 260 263 270 281 292 301 301 302 306 309 311 314 318 319 319 316 317 320 324 324 325
261 261 263 271 282 294 298 299 300 303 305 308 312 315 317 317 319 322 322 315 315 317
Wind_Speed_850mb
9 7 6 8 10 12 16 20 22 24 28 30 33 35 38 41 44 46 47 48 49 48
7 5 5 8 11 13 17 20 24 27 30 33 36 40 44 49 54 57 58 58 57 58
3 2 5 9 12 16 19 21 23 26 29 32 37 42 47 52 57 62 67 71 71 70
7 3 6 12 18 23 27 30 33 35 38 41 45 50 56 61 64 68 71 71 72 73
9 7 11 18 24 28 32 36 39 42 45 49 52 57 63 67 71 75 78 75 72 73
16 14 16 22 28 33 37 42 46 48 50 53 57 63 67 71 75 78 79 80 80 80
24 23 24 26 30 35 39 44 48 49 53 55 59 65 68 71 75 78 79 80 83 85
34 33 31 30 33 37 42 48 52 53 56 57 61 65 69 73 76 79 82 84 85 83
46 41 38 38 37 42 48 54 57 58 60 60 62 66 68 72 77 80 83 86 84 81
54 50 46 43 41 47 54 59 60 60 61 62 62 66 70 73 76 79 81 81 79 78
59 55 51 48 47 52 60 61 61 61 61 62 63 68 70 73 77 78 78 75 72 68
60 58 54 52 50 56 60 61 61 63 62 64 64 67 70 73 76 76 74 69 63 64
57 58 56 53 51 56 60 64 64 64 64 64 66 66 69 70 69 70 69 69 71 70
58 59 57 54 53 59 62 65 64 66 64 62 63 64 62 63 57 57 64 68 71 72
Wind_Direction_850mb
120 106 79 63 38 18 11 8 7 4 360 355 353 350 348 346 342 339 335 330 324 319
130 106 59 32 17 1 354 349 345 341 339 338 338 338 337 336 333 332 330 326 321 315
161 100 24 12 358 354 347 340 334 332 334 333 333 332 331 330 330 328 327 324 321 317
221 294 351 350 344 339 335 333 330 329 328 328 328 328 328 329 329 328 325 322 318 316
243 288 328 332 331 329 328 328 327 325 325 325 326 326 327 327 327 327 325 322 318 314
246 274 298 315 324 326 326 326 324 321 320 321 323 324 325 326 326 325 323 319 317 314
253 268 287 303 316 321 320 319 316 317 319 320 321 322 323 323 323 322 320 317 315 314
256 265 275 289 300 310 317 319 316 316 317 318 320 322 322 322 321 320 318 316 315 314
255 261 268 277 289 302 310 315 314 314 315 316 319 321 321 322 320 318 317 316 316 314
255 259 263 271 284 297 305 309 309 310 311 313 318 320 322 321 318 317 317 316 315 316
255 258 262 272 282 297 303 305 305 308 310 313 319 321 321 319 318 318 316 315 318 319
258 258 264 271 283 294 299 302 303 307 310 313 317 319 319 320 318 316 315 319 323 323
259 260 263 270 281 292 301 301 302 306 309 311 314 318 319 319 316 317 320 324 324 325
261 261 263 271 282 294 298 299 300 303 305 308 312 315 317 317 319 322 322 315 315 317